Flag for Switzerland Weather past 2 weeks in Bellinzona, Ticino, Switzerland

Now
70 °F

Mild.


Feels Like: 77 °F
Forecast: 46 / 77 °F
Wind: 6 mph from West

Location: Locarno-Magadino

Current Time: May 23, 2015 at 3:41:57 PM

Latest Report: May 23, 2015 at 3:00 PM


Visibility: N/A

Pressure: 29.79 "Hg

Humidity: 39%

Dew point: 44 °F

Location of BellinzonaLocation

Historic Weather in Bellinzona — Graph

°F

Bellinzona temperature yesterday

Maximum temperature yesterday: 72 °F (at 2:00 PM)
Minimum temperature yesterday: 51 °F (at 6:00 AM)
Average temperature yesterday: 63 °F

Past Weeks' High & Low Weather Summary

 TemperatureHumidityPressure
High81 °F (May 14, 4:00 PM)98% (May 14, 4:00 AM)30.32 "Hg (May 14, 4:00 AM)
Low46 °F (May 11, 6:00 AM)24% (May 10, 4:00 PM)29.63 "Hg (May 15, 8:00 AM)
Average63 °F67%29.98 "Hg
* Reported May 8 2:00 PM — May 23 2:00 PM, Bellinzona, Weather by CustomWeather, © 2015

Note: Actual official high and low records may vary slightly from our data, if they occured in-between our weather recording intervals... More about our weather records

Advertising

Bellinzona weather history for previous 24 hours

 ConditionsComfort  
Time TempWeatherWind HumidityBarometerVisibility
2:00 PM
Sat, May 23
69 °FMild.3 mph40%29.80 "HgN/A
1:00 PM69 °FMild.5 mph45%29.82 "HgN/A
12:40 PM66 °FMild.6 mph52%29.82 "HgN/A
12:00 PM65 °FMild.6 mph49%29.84 "HgN/A
11:00 AM65 °FMild.9 mph49%29.84 "HgN/A
10:00 AM63 °FMild.5 mph56%29.85 "HgN/A
9:00 AM60 °FRefreshingly cool.3 mph55%29.85 "HgN/A
8:00 AM57 °FCool.2 mph67%29.86 "HgN/A
7:00 AM58 °FRefreshingly cool.6 mph46%29.86 "HgN/A
6:00 AM60 °FRefreshingly cool.3 mph41%29.86 "HgN/A
4:00 AM57 °FRefreshingly cool.6 mph49%29.88 "HgN/A
3:00 AM60 °FRefreshingly cool.7 mph40%29.89 "HgN/A
2:00 AM62 °FRefreshingly cool.12 mph34%29.90 "HgN/A
1:00 AM62 °FRefreshingly cool.7 mph36%29.91 "HgN/A
12:00 AM63 °FMild.9 mph35%29.93 "HgN/A
11:00 PM
Fri, May 22
63 °FMild.13 mph34%29.93 "HgN/A
10:00 PM64 °FMild.12 mph32%29.93 "HgN/A
9:00 PM64 °FMild.12 mph34%29.93 "HgN/A
8:00 PM65 °FMild.12 mph33%29.93 "HgN/A
7:00 PM67 °FMild.13 mph30%29.92 "HgN/A
6:00 PM67 °FMild.13 mph33%29.91 "HgN/A
5:00 PM69 °FMild.16 mph32%29.90 "HgN/A
4:00 PM70 °FMild.17 mph32%29.90 "HgN/A
3:00 PM71 °FMild.18 mph30%29.90 "HgN/A
Weather by CustomWeather, © 2015

See weather overviewHow to use our weather pages